Flag for Austria Weather past 2 weeks in Rust, Burgenland, Austria

Now
72 °F

Partly sunny.


Feels Like: 77 °F
Forecast: 60 / 74 °F
Wind: 9 mph from Southeast

Location: Eisenstadt

Current Time: Aug 1, 2015 at 12:18:43 PM

Latest Report: Aug 1, 2015 at 11:00 AM


Visibility: 16 mi

Pressure: 30.01 "Hg

Humidity: 52%

Dew point: 53 °F

Location of RustLocation

Historic Weather in Rust — Graph

°F

Rust temperature yesterday

Maximum temperature yesterday: 76 °F (at 4:00 PM)
Minimum temperature yesterday: 59 °F (at 11:00 PM)
Average temperature yesterday: 67 °F

Past Weeks' High & Low Weather Summary

 TemperatureHumidityPressure
High97 °F (Jul 22, 4:00 PM)96% (Jul 29, 11:00 PM)30.05 "Hg (Jul 29, 11:00 PM)
Low54 °F (Aug 1, 5:00 AM)21% (Jul 17, 4:00 PM)29.67 "Hg (Jul 25, 3:00 PM)
Average74 °F62%29.88 "Hg
* Reported Jul 17 11:00 AM — Aug 1 11:00 AM, Rust, Weather by CustomWeather, © 2015

Note: Actual official high and low records may vary slightly from our data, if they occured in-between our weather recording intervals... More about our weather records

Advertising

Rust weather history for previous 24 hours

 ConditionsComfort  
Time TempWeatherWind HumidityBarometerVisibility
11:00 AM
Sat, Aug 1
72 °FPartly sunny.9 mph52%30.01 "Hg16 mi
10:00 AM67 °FMild.6 mph59%30.03 "HgN/A
9:00 AM63 °FMild.5 mph64%30.03 "HgN/A
8:00 AM61 °FPassing clouds.2 mph66%30.04 "Hg16 mi
7:00 AM59 °FScattered clouds.3 mph65%30.03 "Hg16 mi
5:00 AM54 °FPassing clouds.2 mph84%30.03 "Hg12 mi
4:00 AM55 °FPassing clouds.5 mph82%30.03 "Hg12 mi
3:00 AM55 °FCool.5 mph79%30.02 "HgN/A
2:00 AM56 °FClear.2 mph74%30.03 "Hg12 mi
1:00 AM57 °FCool.3 mph71%30.03 "HgN/A
12:00 AM58 °FCool.3 mph67%30.04 "HgN/A
11:00 PM
Fri, Jul 31
59 °FPassing clouds.5 mph66%30.04 "Hg19 mi
10:00 PM60 °FCool.5 mph66%30.03 "HgN/A
9:00 PM61 °FCool.5 mph67%30.02 "HgN/A
8:00 PM66 °FSunny.2 mph61%30.00 "Hg12 mi
7:00 PM71 °FPassing clouds.1 mph45%29.99 "Hg19 mi
6:00 PM76 °FMild.1 mph29%29.98 "HgN/A
5:00 PM75 °FPassing clouds.No wind30%29.99 "Hg19 mi
4:00 PM76 °FMild.2 mph30%30.00 "HgN/A
3:00 PM76 °FMild.No wind30%30.01 "HgN/A
2:00 PM74 °FScattered clouds.3 mph32%30.02 "Hg12 mi
1:00 PM74 °FMild.1 mph33%30.02 "HgN/A
12:00 PM73 °FMild.3 mph39%30.04 "HgN/A
Weather by CustomWeather, © 2015

See weather overviewHow to use our weather pages